Location: Caseificio
(44.7500°N, 11.0500°E)
Time: 22:34:10
(UTC+00:00)

Cosmos 1378 Rocket - Pass Details

Date: 26 May 2022
Orbit: 600 x 627 km, 82.5° (Epoch: 29 June)

Event Time Altitude Azimuth Distance (km) Brightness Sun altitude
Exits shadow 00:22:23 37° 269° (W) 971 4.3 -22.3°
Maximum altitude 00:22:50 38° 284° (WNW) 953 4.4 -22.2°
Drops below altitude 10° 00:27:00 10° 354° (N) 2,009 7.1 -22.0°
Sets 00:29:23 0° 2° (N) 2,923 8.3 -21.9°
